When you browse on this site, cookies collect data to enhance your experience and personalize the content and advertising you see.
Visit our Privacy Policy to learn more. By continuing to use the site, you agree to this use of cookies and data.
  • In Czech Republic
  • List of Countries
  • For 7 days
  • Water Temperature
  • Weather Map
  • Weather Widgets
  • user-avatar
    Login

    Hourly Weather Córdoba

    Today, 24 February, Monday

    Time Temperature Precipitation Wind Pressure Humidity
    00:00 +20°C° 0 mm 3 mps 721 mmHg 44%
    01:00 +20°C° 0 mm 3 mps 721 mmHg 44%
    02:00 +19°C° 0 mm 3 mps 720 mmHg 44%
    03:00 +19°C° 0 mm 3 mps 720 mmHg 45%
    04:00 +19°C° 0 mm 2 mps 720 mmHg 45%
    05:00 +19°C° 0 mm 2 mps 719 mmHg 46%
    06:00 +20°C° 0 mm 2 mps 720 mmHg 44%
    07:00 +22°C° 0 mm 3 mps 720 mmHg 41%
    08:00 +25°C° 0 mm 3 mps 720 mmHg 39%
    09:00 +27°C° 0 mm 3 mps 720 mmHg 35%
    10:00 +30°C° 0 mm 4 mps 720 mmHg 32%
    11:00 +33°C° 0 mm 4 mps 720 mmHg 28%
    12:00 +34°C° 0 mm 5 mps 719 mmHg 27%
    13:00 +36°C° 0 mm 5 mps 719 mmHg 25%
    14:00 +37°C° 0 mm 5 mps 718 mmHg 23%
    15:00 +36°C° 0 mm 5 mps 717 mmHg 24%
    16:00 +36°C° 0 mm 5 mps 717 mmHg 24%
    17:00 +36°C° 0 mm 5 mps 716 mmHg 25%
    18:00 +33°C° 0 mm 4 mps 716 mmHg 30%
    19:00 +30°C° 0 mm 4 mps 717 mmHg 35%
    20:00 +27°C° 0 mm 3 mps 717 mmHg 41%
    21:00 +26°C° 0 mm 3 mps 717 mmHg 42%
    22:00 +25°C° 0 mm 3 mps 718 mmHg 44%
    23:00 +25°C° 0 mm 3 mps 719 mmHg 46%

    Tomorrow, 25 February, Tuesday

    Time Temperature Precipitation Wind Pressure Humidity
    00:00 +23°C° 0 mm 4 mps 719 mmHg 44%
    01:00 +22°C° 0 mm 6 mps 720 mmHg 42%
    02:00 +21°C° 0 mm 8 mps 720 mmHg 41%
    03:00 +20°C° 0.2 mm 7 mps 721 mmHg 46%
    04:00 +19°C° 0.2 mm 6 mps 721 mmHg 51%
    05:00 +16°C° 0.2 mm 5 mps 722 mmHg 56%
    06:00 +18°C° 0.4 mm 4 mps 722 mmHg 59%
    07:00 +18°C° 0.4 mm 3 mps 723 mmHg 62%
    08:00 +18°C° 0.4 mm 2 mps 723 mmHg 66%
    09:00 +21°C° 0.5 mm 2 mps 723 mmHg 58%
    10:00 +24°C° 0.5 mm 1 mps 724 mmHg 51%
    11:00 +27°C° 0.5 mm 1 mps 724 mmHg 43%
    12:00 +28°C° 0.1 mm 1 mps 724 mmHg 37%
    13:00 +30°C° 0.1 mm 1 mps 723 mmHg 32%
    14:00 +32°C° 0.1 mm 2 mps 723 mmHg 26%
    15:00 +32°C° 0 mm 2 mps 722 mmHg 24%
    16:00 +32°C° 0 mm 2 mps 722 mmHg 22%
    17:00 +34°C° 0 mm 3 mps 722 mmHg 19%
    18:00 +30°C° 0 mm 2 mps 722 mmHg 23%
    19:00 +27°C° 0 mm 2 mps 722 mmHg 28%
    20:00 +24°C° 0 mm 1 mps 722 mmHg 32%
    21:00 +23°C° 0 mm 2 mps 723 mmHg 31%
    22:00 +23°C° 0 mm 2 mps 723 mmHg 30%
    23:00 +21°C° 0 mm 2 mps 724 mmHg 29%

    Day after tomorrow, 26 February, Wednesday

    Time Temperature Precipitation Wind Pressure Humidity
    00:00 +21°C° 0 mm 2 mps 724 mmHg 29%
    01:00 +20°C° 0 mm 2 mps 724 mmHg 28%
    02:00 +20°C° 0 mm 2 mps 724 mmHg 27%
    03:00 +19°C° 0 mm 2 mps 724 mmHg 28%
    04:00 +19°C° 0 mm 2 mps 724 mmHg 28%
    05:00 +18°C° 0 mm 2 mps 724 mmHg 28%
    06:00 +20°C° 0 mm 3 mps 724 mmHg 27%
    07:00 +21°C° 0 mm 3 mps 725 mmHg 26%
    08:00 +22°C° 0 mm 3 mps 725 mmHg 25%
    09:00 +25°C° 0 mm 3 mps 725 mmHg 23%
    10:00 +28°C° 0 mm 3 mps 726 mmHg 21%
    11:00 +30°C° 0 mm 3 mps 726 mmHg 19%
    12:00 +31°C° 0 mm 3 mps 725 mmHg 18%
    13:00 +33°C° 0 mm 4 mps 725 mmHg 17%
    14:00 +35°C° 0 mm 4 mps 724 mmHg 16%
    15:00 +34°C° 0 mm 4 mps 723 mmHg 16%
    16:00 +34°C° 0 mm 4 mps 723 mmHg 16%
    17:00 +34°C° 0 mm 5 mps 722 mmHg 16%
    18:00 +30°C° 0 mm 4 mps 722 mmHg 19%
    19:00 +27°C° 0 mm 3 mps 723 mmHg 21%
    20:00 +24°C° 0 mm 2 mps 723 mmHg 24%
    21:00 +23°C° 0 mm 2 mps 723 mmHg 27%
    22:00 +21°C° 0 mm 2 mps 724 mmHg 29%
    23:00 +20°C° 0 mm 2 mps 724 mmHg 31%

    27 February, Thursday

    Time Temperature Precipitation Wind Pressure Humidity
    00:00 +20°C° 0 mm 1 mps 724 mmHg 32%
    01:00 +20°C° 0 mm 1 mps 724 mmHg 33%
    02:00 +20°C° 0 mm 1 mps 724 mmHg 34%
    03:00 +19°C° 0 mm 1 mps 723 mmHg 35%
    04:00 +19°C° 0 mm 1 mps 723 mmHg 36%
    05:00 +19°C° 0 mm 1 mps 723 mmHg 38%
    06:00 +20°C° 0 mm 1 mps 724 mmHg 37%
    07:00 +21°C° 0 mm 1 mps 724 mmHg 36%
    08:00 +23°C° 0 mm 1 mps 724 mmHg 34%
    09:00 +25°C° 0 mm 2 mps 724 mmHg 32%
    10:00 +27°C° 0 mm 2 mps 724 mmHg 29%
    11:00 +29°C° 0 mm 2 mps 724 mmHg 26%
    12:00 +31°C° 0 mm 3 mps 724 mmHg 24%
    13:00 +33°C° 0 mm 3 mps 723 mmHg 22%
    14:00 +35°C° 0 mm 3 mps 723 mmHg 20%
    15:00 +35°C° 0 mm 3 mps 722 mmHg 20%
    16:00 +35°C° 0 mm 3 mps 722 mmHg 20%
    17:00 +35°C° 0 mm 3 mps 721 mmHg 20%
    18:00 +31°C° 0 mm 3 mps 721 mmHg 24%
    19:00 +28°C° 0 mm 3 mps 721 mmHg 28%
    20:00 +26°C° 0 mm 3 mps 721 mmHg 32%
    21:00 +25°C° 0 mm 3 mps 721 mmHg 34%
    22:00 +24°C° 0 mm 2 mps 722 mmHg 36%
    23:00 +24°C° 0 mm 2 mps 722 mmHg 37%

    28 February, Friday

    Time Temperature Precipitation Wind Pressure Humidity
    00:00 +23°C° 0 mm 2 mps 722 mmHg 38%
    01:00 +23°C° 0 mm 2 mps 722 mmHg 38%
    02:00 +22°C° 0 mm 1 mps 721 mmHg 39%
    03:00 +21°C° 0 mm 1 mps 721 mmHg 40%
    04:00 +21°C° 0 mm 1 mps 721 mmHg 42%
    05:00 +20°C° 0 mm 1 mps 721 mmHg 43%
    06:00 +22°C° 0 mm 1 mps 722 mmHg 40%
    07:00 +24°C° 0 mm 1 mps 722 mmHg 36%
    08:00 +26°C° 0 mm 2 mps 723 mmHg 32%
    09:00 +29°C° 0 mm 2 mps 723 mmHg 28%
    10:00 +33°C° 0 mm 3 mps 723 mmHg 24%
    11:00 +35°C° 0 mm 4 mps 723 mmHg 20%
    12:00 +36°C° 0 mm 4 mps 722 mmHg 18%
    13:00 +37°C° 0 mm 4 mps 722 mmHg 16%
    14:00 +40°C° 0 mm 4 mps 722 mmHg 15%
    15:00 +38°C° 0 mm 4 mps 721 mmHg 15%
    16:00 +38°C° 0 mm 4 mps 721 mmHg 15%
    17:00 +38°C° 0 mm 4 mps 720 mmHg 15%
    18:00 +35°C° 0 mm 4 mps 720 mmHg 19%
    19:00 +32°C° 0 mm 4 mps 720 mmHg 23%
    20:00 +28°C° 0 mm 3 mps 720 mmHg 26%
    21:00 +28°C° 0 mm 3 mps 721 mmHg 28%
    22:00 +27°C° 0 mm 3 mps 722 mmHg 29%
    23:00 +26°C° 0 mm 3 mps 722 mmHg 30%

    29 February, Saturday

    Time Temperature Precipitation Wind Pressure Humidity
    00:00 +26°C° 0 mm 3 mps 722 mmHg 31%
    01:00 +26°C° 0 mm 3 mps 722 mmHg 32%
    02:00 +25°C° 0 mm 2 mps 722 mmHg 33%
    03:00 +25°C° 0 mm 3 mps 723 mmHg 34%
    04:00 +23°C° 0 mm 4 mps 723 mmHg 35%
    05:00 +23°C° 0 mm 4 mps 724 mmHg 36%
    06:00 +23°C° 0 mm 5 mps 724 mmHg 34%
    07:00 +24°C° 0 mm 6 mps 725 mmHg 33%
    08:00 +26°C° 0 mm 6 mps 726 mmHg 32%
    09:00 +28°C° 0 mm 6 mps 726 mmHg 28%
    10:00 +30°C° 0 mm 6 mps 726 mmHg 25%
    11:00 +33°C° 0 mm 5 mps 727 mmHg 22%
    12:00 +34°C° 0 mm 5 mps 726 mmHg 20%
    13:00 +35°C° 0 mm 5 mps 726 mmHg 19%
    14:00 +36°C° 0 mm 5 mps 726 mmHg 17%
    15:00 +36°C° 0 mm 4 mps 726 mmHg 17%
    16:00 +36°C° 0 mm 4 mps 725 mmHg 16%
    17:00 +35°C° 0 mm 4 mps 725 mmHg 16%
    18:00 +33°C° 0 mm 3 mps 725 mmHg 18%
    19:00 +29°C° 0 mm 3 mps 725 mmHg 20%
    20:00 +26°C° 0 mm 3 mps 726 mmHg 22%
    21:00 +25°C° 0 mm 2 mps 726 mmHg 23%
    22:00 +23°C° 0 mm 2 mps 727 mmHg 24%
    23:00 +22°C° 0 mm 1 mps 727 mmHg 26%
    Show more